Location: Arezzo
(43.4170°N, 11.8830°E)
Time: 20:17:35
(UTC+01:00)

STARLINK-2709 - Pass Details

Date: 26 October 2021
Orbit: 546 x 548 km, 53.1° (Epoch: 01 December)

Event Time Altitude Azimuth Distance (km) Brightness Sun altitude
Exits shadow 05:21:46 14° 163° (SSE) 1,553 6.0 -25.7°
Maximum altitude 05:23:40 19° 129° (SE) 1,337 6.0 -25.3°
Drops below altitude 10° 05:26:35 10° 84° (E) 1,817 7.3 -24.8°
Sets 05:29:18 0° 66° (ENE) 2,715 8.4 -24.3°
